+ View the NASA Portal
+ Center for Near-Earth Object Studies
JPL Small-Body Database Browser
Search:
[
help
]
58063 (6024 P-L)
Classification:
Outer Main-belt Asteroid
SPK-ID:
2058063
[
Ephemeris
|
Orbit Diagram
|
Orbital Elements
|
Mission Design
|
Physical Parameters
|
Discovery Circumstances
|
Close-Approach Data
]
[ show orbit diagram ]
Orbital Elements at Epoch 2459200.5 (2020-Dec-17.0) TDB
Reference:
JPL 20
(heliocentric ecliptic J2000)
Element
Value
Uncertainty (1-sigma)
Units
e
.12525944014208
5.3095e-08
a
3.212391091540995
2.4383e-08
au
q
2.810008781897165
1.7521e-07
au
i
3.805254425304138
4.4832e-06
deg
node
224.5240664907878
8.2433e-05
deg
peri
271.9883356216685
8.7152e-05
deg
M
45.41786291471796
2.325e-05
deg
t
p
2458935.182900690727
(2020-Mar-26.68290069)
0.00013658
TDB
period
2103.008587847632
5.76
2.3944e-05
6.556e-08
d
yr
n
.1711833237773173
1.949e-09
deg/d
Q
3.614773401184826
2.7438e-08
au
Orbit Determination Parameters
# obs. used (total)
652
data-arc span
22030 days (60.31 yr)
first obs. used
1960-09-24
last obs. used
2021-01-17
planetary ephem.
DE431
SB-pert. ephem.
SB431-N16
condition code
0
norm. resid. RMS
.53001
source
ORB
producer
Otto Matic
solution date
2021-Feb-24 19:23:24
Additional Information
Earth MOID
= 1.82702 au
Jupiter MOID
= 1.45457 au
T_jup
= 3.175
[ show covariance matrix ]
[
Ephemeris
|
Orbit Diagram
|
Orbital Elements
|
Mission Design
|
Physical Parameters
|
Discovery Circumstances
|
Close-Approach Data
]
Physical Parameter Table
Parameter
Symbol
Value
Units
Sigma
Reference
Notes
absolute magnitude
H
14.75
n/a
E2021B10
58063 (6024 P-L)
Discovered 1960-Sep-24 by van Houten, C. J., van Houten-Groeneveld, I., Gehrels, T. at Palomar
Reference:
20030318/Numbers.arc
Last Updated:
2004-04-19
[ show close-approach data ]
Alternate Designations
6024 P-L
= 2001 US162
[
Ephemeris
|
Orbit Diagram
|
Orbital Elements
|
Mission Design
|
Physical Parameters
|
Discovery Circumstances
|
Close-Approach Data
]
2021-Feb-27 05:07 UT
(server date/time)
Site Manager:
Ryan S. Park
Webmaster
:
Alan B. Chamberlin